FENGYUN 1C DEB

Satellite information

Favourite Embed

Satellite Type and Status

DEBRISIN ORBIT

Key statistics

Satellite FENGYUN 1C DEB at a glance.

Uptime

9495

Days in orbit

Revolutions

≈ 14.5

Per day

Orbit

SSO

Sun Synchronous Orbit

Inclination

99.4

Latest

Satellite identification and parameters

Extended collection of information and parameters for FENGYUN 1C DEB.

Object identification

Identified? True

Debris? True

Object name: FENGYUN 1C DEB

International designator: 1999-025CWV

Object number (NORAD): 32304

Object ID (CCSDS): 32304

Country: PEOPLES REPUBLIC OF CHINA (PRC)

Current information (Y/N): Y

RCS size: SMALL

Orbital parameters

Period: 99.456 minutes

Inclination: 99.3731 deg

SMA: 7110.711 km

Apoapsis: 769.448 km

Periapsis: 695.705 km

RAAN: 51.5515 deg

Eccentricy: 0.0051854

Argument of periapsis: 170.5157 deg

Mean anomaly: 189.7024 deg

Mean motion: 14.47882023 rev/day

Mean motion (dot): 0.00006581 rev/day2

B* drag term: 0.0017598 1/REarth

Two-line elements (TLE)

Creation date: May 2, 2025, 1:46 a.m.

Reference frame: TEME

Reference center: EARTH

Epoch: May 1, 2025, 11:35 p.m. UTC

TLE line 0: 0 FENGYUN 1C DEB

TLE line 1: 1 32304U 99025CWV 25121.98265316 .00006581 00000-0 17598-2 0 9990

TLE line 2: 2 32304 99.3731 51.5515 0051854 170.5157 189.7024 14.47882023930166

Live tracking on map

Real-time ground track for satellite FENGYUN 1C DEB.

In-orbit conjunctions

A list of the most updated potential collisions computed for object FENGYUN 1C DEB.

Target Orbit TCA Probability of collision Miss distance Type
DMSP 5D-2 F10 (USA 68) SSO 2025-03-08 18:22:40 0.0001084263 391.0 (m) PAYLOAD
OSCAR 18 (WEBERSAT) SSO 2024-10-14 22:53:52 0.0001272798 481.0 (m) PAYLOAD

Associated space launch

Chinese polar orbiting meteorological satellite

FENGYUN 1C DEB was lifted into orbit during the mission ‘Long March 4B | Feng Yun 1C’, on board a Long March 4B space rocket.

The launch took place on May 10, 1999, 1:33 a.m. from Launch Complex 7.

For more information about the launch, click the button.

Launch to space Long March 4B | Feng Yun 1C
Long March 4B | Feng Yun 1C

Agency: N/A

Status: Launch Successful

Launch date: May 10, 1999, 1:33 a.m. UTC

Rocket: Long March 4B

Launch pad: Launch Complex 7

Location: Taiyuan Satellite Launch Center, People's Republic of China

...

Latest news about this satellite

There are no fresh news available about this satellite. Check back as we update our databases every day.


Newsletter sign-up

Weekly statistics, charts and insights to help you stay on top of the space industry.